www.pogodaiklimat.ru

Погода и климат >> Архив погоды >> Венгрия >> Bekescsaba


ПОГОДА в Bekescsaba

  • Прогноз погоды в Bekescsaba
  • Монитор погоды в Bekescsaba
  • Климат города

АРХИВ ПОГОДЫ в Bekescsaba

Время (UTC), дата Ветер
(напр.,м/с)
 
Видим.   Явления Облачность Т
(С)
Тd
(С)
f
(%)
Тe
(С)
Тes
(С)
Комфортность P
(гПа)
Po
(гПа)
Тmin
(С)
Tmax
(С)
R
(мм)
R24
(мм)
S
(см)
04 12.12 З 4 12 км слабый дождь со снегом 10/10 150 м
[St]
+2.0 +1.4 96 -3 -3 1015.3 1004.2
05 12.12 З 4 12 км слабый дождь со снегом 10/10 150 м
[St]
+2.0 +1.4 96 -3 -3 1015.5 1004.4
06 12.12 З 5 10 км слабый дождь со снегом 10/10 150 м
[St]
+1.7 +1.1 96 -4 -4 1015.9 1004.8 +1.1 2
08 12.12 З 4 н/о н/о +1.6 +1.2 97 -4 -4 1016.7 1005.6
07 12.12 З 4 10 км слабый дождь со снегом 10/10 150 м
[St]
+1.5 +0.9 96 -4 -4 1016.2 1005.1
09 12.12 З 5
{7}
12 км слабый дождь {снег} 10/9 150 м
[St Ac As]
+1.9 +1.5 97 -4 -4 1017.2 1006.1
10 12.12 СЗ 5
{7}
н/о н/о +1.7 +1.3 97 -4 -4 1017.5 1006.4
11 12.12 СЗ 5
{6}
н/о н/о +1.9 +1.5 97 -4 -4 1017.6 1006.5
12 12.12 СЗ 4 8000 м слабая морось {снег, дождь} 10/10 100 м
[St]
+2.2 +1.8 97 -3 -3 1017.9 1006.8 0.3
14 12.12 З 4 8000 м 10/9 150 м
[St Ac As]
+2.4 +1.4 93 -3 -3 1018.6 1007.5
13 12.12 СЗ 5 8000 м в посл. час морось 10/9 150 м
[St Ac As]
+2.2 +1.3 94 -3 -3 1018.3 1007.2
15 12.12 СЗ 3 7000 м 10/9 150 м
[St Ac As]
+2.2 +1.5 95 -2 -2 1019.1 1008.0
16 12.12 СЗ 3 н/о н/о +2.2 +1.3 94 -2 -2 1019.5 1008.4
17 12.12 СЗ 3 н/о н/о +2.0 +1.3 95 -2 -2 1019.8 1008.7
18 12.12 СЗ 3 10 км {морось} 10/10 120 м
[St]
+1.9 +1.0 94 -3 -3 1020.1 1009.0 +2.5 0.3
20 12.12 СЗ 1 н/о н/о +1.5 +0.6 94 -0 -0 1020.8 1009.7
19 12.12 С 3 н/о н/о +1.8 +0.8 93 -3 -3 1020.5 1009.4
21 12.12 СЗ 2 н/о н/о +1.3 +0.7 96 -2 -2 1021.1 1010.0
22 12.12 СЗ 2 н/о н/о +0.7 +0.1 96 -3 -3 1021.3 1010.1
23 12.12 СЗ 2 н/о н/о -1.1 -1.4 98 -5 -5 1021.6 1010.4
00 13.12 З 2 н/о н/о -0.6 -0.7 99 -5 -5 1021.8 1010.6
02 13.12 З 2 н/о н/о -1.7 -1.7 100 -6 -6 1022.1 1010.8
01 13.12 СЗ 1 н/о н/о -0.7 -0.8 99 -3 -3 1021.9 1010.7
03 13.12 З 1 н/о н/о -0.9 -1.0 99 -3 -3 1021.9 1010.7
04 13.12 З 1 7000 м 9/9 150 м
[St]
-1.4 -1.5 99 -4 -4 1022.0 1010.7
05 13.12 СЗ 1 2200 м местами туман поземный 3/3 150 м
[St]
-2.0 -2.0 100 -4 -4 1021.9 1010.6
06 13.12 З 1 400 м туман 1/0
[Ac lent]
-3.4 -3.4 100 -6 -6 1021.9 1010.6 -3.5
08 13.12 штиль 0 н/о н/о -2.2 -2.2 100 -4 -4 1022.6 1011.3
07 13.12 ЮЗ 1 800 м туман 1/0
[Ac lent Ci sp]
-3.1 -3.1 100 -6 -5 1022.4 1011.1
09 13.12 штиль 0 700 м туман 1/0
[Ac lent]
-1.3 -1.4 99 -3 -0 1022.7 1011.4
10 13.12 СВ 1 н/о н/о +1.4 -0.2 89 -1 -1 1022.3 1011.1
11 13.12 В 2 н/о н/о +2.3 -1.1 78 -1 -1 1021.9 1010.8
12 13.12 ЮВ 1 15 км {туман} 1/1 480 м
[Cu med, cong]
+3.1 -1.1 74 +2 +4 1021.7 1010.6
14 13.12 В 2 17 км 1/1 400 м
[Cu med, cong]
+1.7 -0.7 84 -2 -1 1021.6 1010.5
13 13.12 В 2 15 км 3/3 400 м
[Cu med, cong]
+2.4 -0.7 80 -1 0 1021.3 1010.2
15 13.12 В 1 12 км 1/0
[Ac lent]
+0.6 -1.5 86 -1 -1 1021.7 1010.5
16 13.12 штиль 0 н/о н/о -1.3 -2.1 94 -3 -3 1021.7 1010.4
17 13.12 штиль 0 н/о н/о -1.9 -2.2 98 -3 -3 1021.7 1010.4
18 13.12 штиль 0 7000 м 1/0
[Ac trans]
-2.1 -2.1 100 -4 -4 1021.7 1010.4 +3.4
20 13.12 С 2 н/о н/о -2.1 -2.2 99 -6 -6 1022.0 1010.7
19 13.12 штиль 0 н/о н/о -2.8 -2.8 100 -4 -4 1021.8 1010.5
21 13.12 С 1 н/о н/о -2.3 -2.4 99 -5 -5 1021.9 1010.6
22 13.12 С 2 н/о н/о -4.4 -4.5 99 -9 -9 1022.2 1010.8
23 13.12 С 1 н/о н/о -3.2 -3.2 100 -6 -6 1022.0 1010.7
00 14.12 СЗ 1 н/о н/о -4.9 -5.0 99 -7 -7 1022.0 1010.6
02 14.12 СВ 2 н/о н/о -3.4 -3.7 98 -8 -8 1021.5 1010.2
01 14.12 С 2 н/о н/о -5.3 -5.6 98 -10 -10 1022.1 1010.7
03 14.12 СВ 2 н/о н/о -3.3 -3.4 99 -8 -8 1021.5 1010.2
04 14.12 СВ 3 8000 м 1/0
[Ci sp]
-3.3 -3.7 97 -9 -9 1020.9 1009.6
05 14.12 СВ 4 8000 м 1/0
[Ci sp]
-2.9 -3.4 96 -9 -9 1020.9 1009.6
06 14.12 СВ 2 8000 м 3/0
[Ac trans Ci sp]
-3.5 -4.2 95 -8 -8 1021.2 1009.9 -5.3
08 14.12 СВ 1 н/о н/о -2.9 -3.3 97 -5 -5 1021.7 1010.4
07 14.12 СВ 2 7000 м 5/0
[Ac trans Ci sp]
-3.8 -4.3 96 -8 -8 1021.7 1010.3
09 14.12 СВ 2 10 км 9/0
[Ac trans]
-1.6 -2.3 95 -6 -5 1022.2 1010.9
10 14.12 СВ 2 н/о н/о -0.9 -1.7 94 -5 -5 1021.9 1010.7
11 14.12 СВ 4 н/о н/о -0.6 -1.4 94 -6 -6 1021.6 1010.4
12 14.12 СВ 3 12 км 9/0
[Ac As]
+0.2 -1.1 91 -5 -4 1021.2 1010.0
14 14.12 СВ 5
{7}
10 км 10/0
[Ac As]
-0.7 -1.4 95 -7 -7 1020.8 1009.6
13 14.12 СВ 5
{7}
12 км 9/0
[Ac As]
+0.3 -0.8 92 -6 -6 1020.8 1009.6
15 14.12 СВ 5 8000 м 10/3 900 м
[Sc Ac As]
-0.6 -1.3 95 -7 -7 1020.7 1009.5
16 14.12 СВ 5
{8}
н/о н/о -0.3 -1.1 94 -7 -7 1020.6 1009.4
17 14.12 СВ 5
{7}
н/о н/о -0.1 -1.1 93 -6 -6 1020.4 1009.2
18 14.12 СВ 4
{7}
8000 м 10/1 600 м
[Sc Ac As]
-0.1 -1.2 92 -6 -6 1020.4 1009.2 +0.4
20 14.12 СВ 3 н/о н/о +0.1 -1.6 88 -5 -5 1020.4 1009.2
19 14.12 СВ 3 н/о н/о -0.1 -1.5 90 -5 -5 1020.5 1009.3
21 14.12 С 2 н/о н/о -0.3 -1.1 94 -4 -4 1020.3 1009.1
22 14.12 С 2 н/о н/о -0.6 -0.9 98 -5 -5 1020.3 1009.1
23 14.12 С 2 н/о н/о -0.7 -0.7 100 -5 -5 1019.9 1008.7
00 15.12 СВ 2 н/о н/о -0.7 -0.7 100 -5 -5 1019.3 1008.1 2
02 15.12 СВ 2 н/о н/о -0.6 -0.6 100 -5 -5 1019.2 1008.0
01 15.12 СВ 2 н/о н/о -0.7 -0.7 100 -5 -5 1019.5 1008.3
03 15.12 С 2 н/о н/о -0.7 -0.7 100 -5 -5 1018.9 1007.7
04 15.12 СВ 1 1200 м слабый снег 10/0 1200 м
[As op]
-0.6 -0.6 100 -3 -3 1018.9 1007.7
05 15.12 С 1 1400 м слабый снег 10/0 1200 м
[As op]
-0.7 -0.7 100 -3 -3 1018.7 1007.5
06 15.12 С 1 2200 м слабый снег 10/0 1000 м
[As op]
-0.8 -0.8 100 -3 -3 1018.9 1007.7 -0.8 6
08 15.12 штиль 0 н/о н/о -0.4 -0.4 100 -2 -2 1019.3 1008.1
07 15.12 штиль 0 2200 м слабый снег 10/0 1000 м
[As op]
-0.8 -0.8 100 -2 -2 1019.1 1007.9
09 15.12 С 1 2200 м слабый снег 10/0
[As op]
+0.1 -0.2 98 -2 -2 1019.5 1008.3
10 15.12 СВ 1 н/о н/о +0.3 0.0 98 -2 -2 1019.4 1008.2
11 15.12 штиль 0 н/о н/о +0.5 +0.1 97 -1 -1 1019.1 1007.9
12 15.12 В 1 2500 м слабый снег 10/0
[As op]
+0.4 +0.1 98 -2 -1 1018.7 1007.5 3
14 15.12 штиль 0 2200 м слабый снег 10/0
[As op]
+0.3 0.0 98 -1 -1 1018.7 1007.5
13 15.12 штиль 0 2500 м слабый снег 10/0
[As op]
+0.4 +0.3 99 -1 -1 1018.6 1007.4
15 15.12 штиль 0 1400 м слабый снег 10/0 1500 м
[As op]
+0.2 +0.1 99 -1 -1 1018.7 1007.5
16 15.12 штиль 0 н/о н/о -0.1 -0.1 100 -2 -2 1018.6 1007.4
17 15.12 З 2 н/о н/о -0.1 -0.1 100 -4 -4 1018.8 1007.6
18 15.12 З 2 1600 м слабый снег 10/0 1500 м
[As op]
-0.1 -0.1 100 -4 -4 1019.1 1007.9 +0.9 6
20 15.12 З 2 н/о н/о -0.2 -0.2 100 -4 -4 1019.4 1008.2
19 15.12 З 3 н/о н/о -0.2 -0.2 100 -5 -5 1019.3 1008.1
21 15.12 З 1 н/о н/о -0.4 -0.4 100 -3 -3 1019.4 1008.2
22 15.12 штиль 0 н/о н/о -0.8 -0.8 100 -2 -2 1019.4 1008.2
23 15.12 штиль 0 н/о н/о -0.5 -0.5 100 -2 -2 1018.9 1007.7
00 16.12 штиль 0 н/о н/о -0.6 -0.6 100 -2 -2 1018.9 1007.7 2
02 16.12 штиль 0 н/о н/о -0.9 -0.9 100 -2 -2 1019.0 1007.8
01 16.12 штиль 0 н/о н/о -1.1 -1.1 100 -3 -3 1018.8 1007.6
03 16.12 штиль 0 н/о н/о -0.8 -0.8 100 -2 -2 1018.7 1007.5
04 16.12 штиль 0 1400 м слабый снег 10/0 1200 м
[As op]
-0.6 -0.6 100 -2 -2 1018.7 1007.5
05 16.12 штиль 0 1600 м слабый снег 10/0 1200 м
[As op]
-0.8 -0.8 100 -2 -2 1018.7 1007.5
06 16.12 штиль 0 1600 м слабый снег 10/0
[As op]
-0.8 -0.8 100 -2 -2 1019.0 1007.8 4
08 16.12 штиль 0 н/о н/о -0.5 -0.5 100 -2 -2 1020.0 1008.8
07 16.12 штиль 0 1800 м слабый снег 10/0 1500 м
[As op]
-0.7 -0.7 100 -2 -2 1019.4 1008.2
09 16.12 штиль 0 2200 м слабый снег 10/0
[As op]
-0.3 -0.3 100 -2 -1 1020.6 1009.4
10 16.12 штиль 0 н/о н/о -0.1 -0.4 98 -2 -2 1020.7 1009.5
11 16.12 З 1 н/о н/о +0.9 0.0 94 -1 -1 1020.5 1009.3
12 16.12 СЗ 1 5000 м в посл. час снег {дождь} 10/0
[As op]
+0.4 -0.6 93 -2 -1 1020.3 1009.1 0.7
14 16.12 ЮЗ 2 6000 м 10/0
[As op]
-0.3 -0.9 96 -4 -4 1020.8 1009.6
13 16.12 штиль 0 5000 м дымка 10/0
[As op]
+0.4 -0.5 94 -1 -1 1020.1 1008.9
15 16.12 ЮЗ 3 5000 м дымка 10/0
[As op]
-0.6 -1.2 96 -6 -6 1021.3 1010.1
16 16.12 З 3 н/о н/о -0.7 -1.1 97 -6 -6 1021.7 1010.5
17 16.12 штиль 0 н/о н/о -0.7 -1.0 98 -2 -2 1021.8 1010.6
18 16.12 З 2 5000 м дымка 10/0
[As op]
-0.8 -1.1 98 -5 -5 1022.3 1011.1 0.7
20 16.12 штиль 0 н/о н/о -0.8 -1.4 96 -2 -2 1022.1 1010.9
19 16.12 З 1 н/о н/о -0.9 -1.6 95 -3 -3 1022.1 1010.9
21 16.12 ЮЗ 1 н/о н/о -1.0 -1.6 96 -3 -3 1022.1 1010.9
22 16.12 ЮЗ 1 н/о н/о -1.0 -1.4 97 -3 -3 1022.6 1011.3
23 16.12 З 3 н/о н/о -1.1 -2.7 89 -6 -6 1022.9 1011.6
00 17.12 ЮЗ 2 н/о н/о -1.1 -2.7 89 -5 -5 1022.6 1011.3
02 17.12 штиль 0 н/о н/о -1.6 -3.5 87 -3 -3 1022.5 1011.2
01 17.12 штиль 0 н/о н/о -1.4 -3.3 87 -3 -3 1022.3 1011.0
03 17.12 штиль 0 н/о н/о -1.8 -3.8 86 -3 -3 1022.2 1010.9
04 17.12 СЗ 1 8000 м 10/0
[Ac As]
-2.0 -3.7 88 -4 -4 1022.1 1010.8
05 17.12 З 1 7000 м 10/0
[Ac As]
-2.1 -3.7 89 -4 -4 1022.1 1010.8
06 17.12 штиль 0 7000 м 10/0
[Ac As]
-2.1 -3.7 89 -3 -3 1022.1 1010.8 -2.2
08 17.12 С 2 н/о н/о -2.0 -3.3 91 -6 -6 1022.8 1011.5
07 17.12 СЗ 2 8000 м 10/0
[Ac As]
-2.5 -3.9 90 -7 -7 1022.4 1011.1
09 17.12 СЗ 2 8000 м 10/10 150 м
[St]
-1.1 -3.0 87 -5 -5 1023.0 1011.7
10 17.12 СЗ 2 н/о н/о -1.4 -3.6 85 -5 -5 1022.9 1011.6
11 17.12 СЗ 3 н/о н/о -1.2 -2.8 89 -6 -6 1022.8 1011.5
12 17.12 СЗ 3 10 км 9/3 150 м
[Cu hum Ac As]
-1.3 -2.7 90 -6 -6 1022.6 1011.3
14 17.12 СЗ 2 10 км 10/0
[As op]
-1.2 -3.2 86 -5 -5 1023.6 1012.3
13 17.12 СЗ 3 10 км 10/1 180 м
[Cu hum Ac As]
-1.1 -2.7 89 -6 -6 1022.9 1011.6
15 17.12 СЗ 3 10 км 10/10 150 м
[St]
-1.6 -3.2 89 -7 -7 1023.9 1012.6
16 17.12 СЗ 3 н/о н/о -2.3 -3.3 93 -8 -8 1024.4 1013.1
17 17.12 СЗ 3 н/о н/о -2.4 -3.5 92 -8 -8 1025.1 1013.8
18 17.12 СЗ 4 8000 м 10/10 150 м
[St]
-3.1 -4.2 92 -9 -9 1025.6 1014.2 -0.9
20 17.12 З 3 н/о н/о -4.4 -5.2 94 -10 -10 1026.6 1015.2
19 17.12 СЗ 3 н/о н/о -3.6 -4.7 92 -9 -9 1026.3 1014.9
21 17.12 СЗ 2 н/о н/о -4.5 -5.0 96 -9 -9 1027.3 1015.8
22 17.12 СЗ 2 н/о н/о -3.9 -4.4 96 -8 -8 1027.2 1015.8
23 17.12 СЗ 4 н/о н/о -5.9 -6.6 95 -13 -13 1027.6 1016.1
00 18.12 СЗ 3 н/о н/о -7.6 -8.1 96 -13 -13 1027.8 1016.2
02 18.12 З 2 н/о н/о -8.2 -8.9 95 -13 -13 1028.6 1017.0
01 18.12 СЗ 3 н/о н/о -8.1 -8.6 96 -14 -14 1028.2 1016.6
03 18.12 З 2 н/о н/о -8.9 -9.7 94 -13 -13 1028.7 1017.0
04 18.12 СЗ 2 600 м переохл. туман 10/10 90 м
[St]
-9.3 -10.2 93 -14 -14 1029.0 1017.3
05 18.12 З 1 800 м переохл. туман 10/10 90 м
[St]
-8.6 -9.4 94 -11 -11 1029.0 1017.4
06 18.12 З 2 600 м туман 10/10 90 м
[St]
-8.2 -9.0 94 -13 -13 1029.6 1018.0 -9.3
08 18.12 штиль 0 н/о н/о -8.1 -8.9 94 -9 -9 1030.6 1019.0
07 18.12 З 2 600 м туман 10/10 90 м
[St]
-8.4 -9.2 94 -13 -13 1030.0 1018.4
09 18.12 Ю 1 800 м туман 9/0
[Ac trans]
-7.5 -8.2 95 -10 -9 1031.1 1019.5
10 18.12 Ю 1 н/о н/о -6.6 -7.3 95 -9 -9 1030.9 1019.3
11 18.12 Ю 1 н/о н/о -6.6 -7.3 95 -9 -9 1030.7 1019.1
12 18.12 Ю 2 5000 м дымка {туман} 9/3 100 м
[Cu hum Ac trans]
-6.1 -6.8 95 -11 -10 1030.2 1018.6
14 18.12 Ю 2 6000 м 1/0
[Ac trans Ci sp]
-6.3 -7.1 94 -11 -11 1030.0 1018.4
13 18.12 ЮЗ 2 6000 м 9/0
[Ac trans]
-5.7 -6.4 95 -10 -10 1029.8 1018.3
15 18.12 Ю 1 3000 м дымка 4/0
[Ac trans Ci sp]
-7.6 -8.4 94 -10 -10 1030.2 1018.6
16 18.12 ЮВ 2 н/о н/о -7.8 -8.5 95 -12 -12 1030.6 1019.0
17 18.12 Ю 2 н/о н/о -7.6 -8.3 95 -12 -12 1030.8 1019.2
18 18.12 ЮЗ 1 400 м переохл. туман 10/10 50 м
[St]
-8.9 -9.7 94 -11 -11 1031.1 1019.4
20 18.12 Ю 1 н/о н/о -9.5 -10.4 93 -12 -12 1031.1 1019.4
19 18.12 Ю 1 н/о н/о -9.8 -10.7 93 -12 -12 1031.4 1019.7
21 18.12 штиль 0 н/о н/о -9.6 -10.5 93 -10 -10 1031.3 1019.6
22 18.12 штиль 0 н/о н/о -9.6 -10.5 93 -10 -10 1031.5 1019.8
23 18.12 ЮВ 1 н/о н/о -9.6 -10.5 93 -12 -12 1031.1 1019.4
00 19.12 штиль 0 н/о н/о -9.6 -10.5 93 -10 -10 1031.0 1019.3
02 19.12 штиль 0 н/о н/о -9.3 -10.2 93 -10 -10 1030.9 1019.2
01 19.12 штиль 0 н/о н/о -9.4 -10.3 93 -10 -10 1030.9 1019.2

 

Местоположение метеостанции Bekescsaba (Венгрия): широта 46.68 долгота 21.17 высота над уровнем моря 90 м.

В архиве по умолчанию представлена погода в Bekescsaba за последнюю неделю. Архивные данные за месяц целиком и за предыдущие месяцы, начиная с января 2011 года, Вы можете получить, выбрав интересующий диапазон дат из раскрывающегося списка и нажав кнопку "Ввод!".


*Определитесь, кто Вы:
робот инопланетянин человек

Внимание! Время в таблицах - всемирное. Для получения местного времени необходимо прибавить поправку, которая в Bekescsaba равна 1 ч.

Смотрите также архив погоды в соседних городах и на ближайших метеорологических станциях:

Погода в Chisineu-Cris (Румыния) (32 км)
Погода в Siria (Румыния) (60 км)
Погода в Arad (Румыния) (63 км)
Погода в Oradea (Румыния) (68 км)
Погода в Holod (Румыния) (73 км)
Погода в Dumbravita De Codru (Румыния) (77 км)
Погода в Sannicolaul Mare (Румыния) (80 км)
Погода в Szolnok (Венгрия) (87 км)
Погода в Debrecen (Венгрия) (95 км)
Погода в Szeged (Венгрия) (95 км)

Пояснения к столбцам:

Ветер - указаны скорость ветра в м/с - средняя за 10 мин, порывы в срок и между сроками (в фигурных скобках) и направление, откуда дует ветер: С - северный, СВ - северо-восточный, В - восточный, ЮВ - юго-восточный, Ю - южный, ЮЗ - юго-западный, З - западный, СЗ - северо-западный.
Видимость - горизонтальная дальность видимости в метрах или километрах. При видимости от 1 до 10 км при отсутствии осадков обычно наблюдается дымка, при ухудшении видимости до 1 км и менее - туман. В сухую погоду видимость может ухудшаться дымом, пылью или мглою.
Явления - указаны атмосферные явления, наблюдавшиеся в срок или в последний час перед сроком; фигурными скобками обозначены явления, наблюдавшиеся между сроками (за 1-3 часа до срока); квадратными скобками обозначены град или гололедные отложения с указанием их диаметра в мм.
Облачность - указаны через наклонную черту общая и нижняя облачность в баллах и высота нижней границы облаков в метрах; квадратными скобками обозначены формы облаков: Ci - перистые, Cs - перисто-слоистые, Cc - перисто-кучевые, Ac - высококучевые, As - высокослоистые, Sc - слоисто-кучевые, Ns - слоисто-дождевые, Cu - кучевые, Cb - кучево-дождевые. Подробнее классификацию облаков см. в Атласе облаков (PDF).
T - Температура воздуха - температура, измеренная на высоте 2 м над землей.
Td - Температура точки росы - температура, при понижении до которой содержащийся в воздухе водяной пар достигнет насыщения.
f - Относительная влажность воздуха - влажноcть воздуха, измеренная на высоте 2 м над землей.
Te - Эффективная температура - температура, которую ощущает одетый по сезону человек в тени. Характеристика душности погоды. При расчете учитывается влияние влажности воздуха и скорости ветра на теплоощущения человека.
Tes - Эффективная температура на солнце - температура, которую ощущает человек, с поправкой на солнечный нагрев. Характеристика знойности погоды. Зависит от высоты солнца над горизонтом, облачности и скорости ветра. Ночью, в пасмурную погоду, а также при ветре 12 м/с и более поправка равна нулю.
P - Атмосферное давление - приведенное к уровню моря атмосферное давление.
Po - Атмосферное давление - измеренное на уровне метеостанции атмосферное давление.
Tmin - Минимальная температура - минимум температуры воздуха на высоте 2 м над землей.
Tmax - Максимальная температура - максимум температуры воздуха на высоте 2 м над землей.
R - Количество осадков - Количество выпавших осадков за период времени, мм. При наведении курсора мыши на число - период времени, за который выпало указанное количество осадков.
R24 - Количество осадков - Количество выпавших осадков за 24 часа, мм.
S - Снежный покров - Высота снежного покрова, см. При наведении курсора мыши на число - состояние снежного покрова и степень покрытия местности в баллах.